Hourly Data Report for December 30, 2020

L'ASSOMPTION
QUEBEC
Current Station Operator: ECCC - MSC

45°48'34.000" N
73°26'05.000" W
21.00 m
7014160
71524
WEW

Download Data

Hourly Data (December 2020)
Hourly Data Report for December 30, 2020
TIME
LST
Temp Definition
°C
Dew Point Definition
°C
Rel Hum Definition
%
Precip. Amount Definition
mm

Wind Dir Definition
10's deg

Wind Spd Definition
km/h
Visibility Definition
km
Stn Press Definition
kPa
Hmdx Definition


Wind Chill Definition


Weather Definition


00:00 -9.0 -13.7 68 0.0 24 9   102.87   -14 LegendNANA
01:00 -9.1 -13.5 71 0.0 24 8   102.92   -13 LegendNANA
02:00 -9.2 -12.9 74 0.0 24 10   102.94   -14 LegendNANA
03:00 -9.0 -12.5 76 0.0 24 10   102.91   -14 LegendNANA
04:00 -8.7 -12.1 76 0.0 24 9   102.91   -13 LegendNANA
05:00 -7.7 -11.6 73 0.0 23 10   102.85   -13 LegendNANA
06:00 -7.8 -11.2 76 0.0 22 7   102.77   -11 LegendNANA
07:00 -7.7 -11.0 78 0.0 22 4   102.73   -10 LegendNANA
08:00 -7.4 -10.8 77 0.0 20 3   102.65   -9 LegendNANA
09:00 -5.8 -9.1 78 0.0 14 2   102.58   -7 LegendNANA
10:00 -4.9 -9.5 70 0.0 16 9   102.49   -9 LegendNANA
11:00 -4.2 -8.3 73 0.0 12 8   102.22   -8 LegendNANA
12:00 -3.6 -9.1 66 0.0 13 12   101.94   -8 LegendNANA
13:00 -3.1 -10.4 57 0.0 14 14   101.73   -8 LegendNANA
14:00 -4.4 -6.4 86 0.0 14 18   101.50   -10 LegendNANA
15:00 -4.2 -5.5 91 1.0 6 11   101.26   -9 LegendNANA
16:00 -4.0 -5.4 89 0.0 1 5   101.27   -6 LegendNANA
17:00 -3.5 -4.3 94 2.2 12 11   101.04   -8 LegendNANA
18:00 -2.9 -3.5 96 2.6 13 8   100.86   -6 LegendNANA
19:00 -1.8 -2.3 96 1.6 17 11   100.73   -6 LegendNANA
20:00 -1.3 -1.8 96 1.4 17 11   100.57   -5 LegendNANA
21:00 -0.7 -1.2 97 1.4 19 15   100.51   -5 LegendNANA
22:00 -0.1 -0.5 97 1.8 19 15   100.34   -5 LegendNANA
23:00 0.3 -0.1 97 1.3 19 12   100.27     LegendNANA

Notes on Data Quality.

Legend

  • E = Estimated
  • M = Missing
  • NA = Not Available*
  • [empty] = Indicates an unobserved value
Date modified: